Time,TemperatureF,DewpointF,PressureIn,WindDirection,WindDirectionDegrees,WindSpeedMPH,WindSpeedGustMPH,Humidity,HourlyPrecipIn,Conditions,Clouds,dailyrainin,SoftwareType,DateUTC
2015-02-28 00:00:00,57.1,52.9,30.21,ESE,117,1.0,13.0,86,0.00,,,0.00,Weather View 32 v70,2015-02-28 05:00:00,
2015-02-28 00:05:00,57.1,52.9,30.21,NE,42,0.0,13.0,86,0.00,,,0.00,Weather View 32 v70,2015-02-28 05:05:00,
2015-02-28 00:10:00,57.0,52.8,30.21,NE,46,4.0,13.0,86,0.00,,,0.00,Weather View 32 v70,2015-02-28 05:10:00,
2015-02-28 00:15:00,56.9,52.7,30.21,East,81,7.0,13.0,86,0.00,,,0.00,Weather View 32 v70,2015-02-28 05:15:00,
2015-02-28 00:20:00,56.9,52.7,30.20,East,84,7.0,13.0,86,0.00,,,0.00,Weather View 32 v70,2015-02-28 05:20:00,
2015-02-28 00:25:00,56.9,53.1,30.21,NE,38,0.0,13.0,87,0.00,,,0.00,Weather View 32 v70,2015-02-28 05:25:00,
2015-02-28 00:30:00,56.9,53.1,30.21,NNE,32,0.0,13.0,87,0.00,,,0.00,Weather View 32 v70,2015-02-28 05:30:00,
2015-02-28 00:35:00,56.9,53.1,30.21,ENE,72,2.0,13.0,87,0.00,,,0.00,Weather View 32 v70,2015-02-28 05:35:00,
2015-02-28 00:40:00,56.9,53.1,30.21,ENE,73,5.0,13.0,87,0.00,,,0.00,Weather View 32 v70,2015-02-28 05:40:00,
2015-02-28 00:45:00,56.8,53.0,30.21,ENE,74,1.0,13.0,87,0.00,,,0.00,Weather View 32 v70,2015-02-28 05:45:00,
2015-02-28 00:50:00,56.8,53.0,30.21,NE,44,3.0,13.0,87,0.00,,,0.00,Weather View 32 v70,2015-02-28 05:50:00,
2015-02-28 00:55:00,56.8,53.0,30.21,NE,45,0.0,10.0,87,0.00,,,0.00,Weather View 32 v70,2015-02-28 05:55:00,
2015-02-28 01:00:00,56.8,53.0,30.21,NE,51,3.0,10.0,87,0.00,,,0.00,Weather View 32 v70,2015-02-28 06:00:00,
2015-02-28 01:05:00,56.8,53.0,30.21,NE,36,0.0,10.0,87,0.00,,,0.00,Weather View 32 v70,2015-02-28 06:05:00,
2015-02-28 01:10:00,56.8,53.0,30.21,NE,35,0.0,10.0,87,0.00,,,0.00,Weather View 32 v70,2015-02-28 06:10:00,
2015-02-28 01:16:00,56.7,52.9,30.21,NE,37,8.0,10.0,87,0.00,,,0.00,Weather View 32 v70,2015-02-28 06:16:00,
2015-02-28 01:21:00,56.7,52.9,30.21,NE,40,0.0,10.0,87,0.00,,,0.00,Weather View 32 v70,2015-02-28 06:21:00,
2015-02-28 01:26:00,56.6,52.8,30.21,NE,47,8.0,10.0,87,0.00,,,0.00,Weather View 32 v70,2015-02-28 06:26:00,
2015-02-28 01:31:00,56.6,52.8,30.21,NE,41,0.0,10.0,87,0.00,,,0.00,Weather View 32 v70,2015-02-28 06:31:00,
2015-02-28 01:36:00,56.6,53.1,30.21,NNE,20,0.0,10.0,88,0.00,,,0.00,Weather View 32 v70,2015-02-28 06:36:00,
2015-02-28 01:41:00,56.6,53.1,30.21,NE,42,0.0,10.0,88,0.00,,,0.00,Weather View 32 v70,2015-02-28 06:41:00,
2015-02-28 01:46:00,56.6,53.1,30.20,NE,43,0.0,10.0,88,0.00,,,0.00,Weather View 32 v70,2015-02-28 06:46:00,
2015-02-28 01:51:00,56.6,53.1,30.21,NNE,29,4.0,10.0,88,0.00,,,0.00,Weather View 32 v70,2015-02-28 06:51:00,
2015-02-28 01:56:00,56.6,53.1,30.20,NE,34,5.0,10.0,88,0.00,,,0.00,Weather View 32 v70,2015-02-28 06:56:00,
2015-02-28 02:01:00,56.5,53.0,30.21,NNE,25,0.0,9.0,88,0.00,,,0.00,Weather View 32 v70,2015-02-28 07:01:00,
2015-02-28 02:06:00,56.5,53.0,30.21,ENE,61,8.0,9.0,88,0.00,,,0.00,Weather View 32 v70,2015-02-28 07:06:00,
2015-02-28 02:11:00,56.6,53.1,30.20,NNE,26,0.0,9.0,88,0.00,,,0.00,Weather View 32 v70,2015-02-28 07:11:00,
2015-02-28 02:16:00,56.5,53.3,30.20,NNE,26,5.0,11.0,89,0.00,,,0.00,Weather View 32 v70,2015-02-28 07:16:00,
2015-02-28 02:21:00,56.6,53.4,30.20,NNE,26,5.0,11.0,89,0.00,,,0.00,Weather View 32 v70,2015-02-28 07:21:00,
2015-02-28 02:26:00,56.6,53.4,30.20,NNE,18,6.0,11.0,89,0.00,,,0.00,Weather View 32 v70,2015-02-28 07:26:00,
2015-02-28 02:31:00,56.6,53.4,30.20,NE,53,3.0,11.0,89,0.00,,,0.00,Weather View 32 v70,2015-02-28 07:31:00,
2015-02-28 02:36:00,56.6,53.4,30.20,NE,38,0.0,11.0,89,0.00,,,0.00,Weather View 32 v70,2015-02-28 07:36:00,
2015-02-28 02:41:00,56.5,53.3,30.20,NE,47,8.0,11.0,89,0.00,,,0.00,Weather View 32 v70,2015-02-28 07:41:00,
2015-02-28 02:46:00,56.5,53.3,30.20,NE,43,0.0,11.0,89,0.00,,,0.00,Weather View 32 v70,2015-02-28 07:46:00,
2015-02-28 02:51:00,56.5,53.3,30.20,NE,46,5.0,11.0,89,0.00,,,0.00,Weather View 32 v70,2015-02-28 07:51:00,
2015-02-28 02:56:00,56.4,53.2,30.20,NE,34,7.0,11.0,89,0.00,,,0.00,Weather View 32 v70,2015-02-28 07:56:00,
2015-02-28 03:01:00,56.4,53.2,30.20,NE,38,0.0,11.0,89,0.00,,,0.00,Weather View 32 v70,2015-02-28 08:01:00,
2015-02-28 03:06:00,56.4,53.5,30.20,NE,53,0.0,11.0,90,0.00,,,0.00,Weather View 32 v70,2015-02-28 08:06:00,
2015-02-28 03:11:00,56.4,53.5,30.20,NE,34,1.0,11.0,90,0.00,,,0.00,Weather View 32 v70,2015-02-28 08:11:00,
2015-02-28 03:16:00,56.4,53.5,30.20,North,360,7.0,10.0,90,0.00,,,0.00,Weather View 32 v70,2015-02-28 08:16:00,
2015-02-28 03:21:00,56.3,53.4,30.20,NE,44,0.0,10.0,90,0.00,,,0.00,Weather View 32 v70,2015-02-28 08:21:00,
2015-02-28 03:26:00,56.3,53.4,30.20,NE,34,0.0,10.0,90,0.00,,,0.00,Weather View 32 v70,2015-02-28 08:26:00,
2015-02-28 03:31:00,56.3,53.4,30.20,NNE,27,2.0,9.0,90,0.00,,,0.00,Weather View 32 v70,2015-02-28 08:31:00,
2015-02-28 03:36:00,56.3,53.4,30.19,NNE,27,3.0,9.0,90,0.00,,,0.00,Weather View 32 v70,2015-02-28 08:36:00,
2015-02-28 03:41:00,56.2,53.6,30.19,NE,39,2.0,10.0,91,0.00,,,0.00,Weather View 32 v70,2015-02-28 08:41:00,
2015-02-28 03:46:00,56.2,53.6,30.19,NE,42,0.0,10.0,91,0.00,,,0.00,Weather View 32 v70,2015-02-28 08:46:00,
2015-02-28 03:51:00,56.1,53.5,30.19,ENE,60,4.0,11.0,91,0.00,,,0.00,Weather View 32 v70,2015-02-28 08:51:00,
2015-02-28 03:57:00,56.1,53.5,30.19,ENE,61,4.0,11.0,91,0.00,,,0.00,Weather View 32 v70,2015-02-28 08:57:00,
2015-02-28 04:02:00,56.1,53.5,30.19,NE,49,0.0,11.0,91,0.00,,,0.00,Weather View 32 v70,2015-02-28 09:02:00,
2015-02-28 04:07:00,56.2,53.9,30.19,East,80,6.0,11.0,92,0.00,,,0.00,Weather View 32 v70,2015-02-28 09:07:00,
2015-02-28 04:12:00,56.2,53.9,30.19,NE,53,4.0,11.0,92,0.00,,,0.00,Weather View 32 v70,2015-02-28 09:12:00,
2015-02-28 04:17:00,56.2,53.9,30.18,ENE,61,3.0,11.0,92,0.00,,,0.00,Weather View 32 v70,2015-02-28 09:17:00,
2015-02-28 04:22:00,56.3,54.0,30.18,NE,49,0.0,11.0,92,0.00,,,0.00,Weather View 32 v70,2015-02-28 09:22:00,
2015-02-28 04:27:00,56.4,54.1,30.19,East,89,0.0,11.0,92,0.00,,,0.00,Weather View 32 v70,2015-02-28 09:27:00,
2015-02-28 04:32:00,56.5,54.2,30.18,ESE,107,1.0,11.0,92,0.00,,,0.00,Weather View 32 v70,2015-02-28 09:32:00,
2015-02-28 04:37:00,56.6,54.3,30.19,ENE,67,3.0,11.0,92,0.00,,,0.00,Weather View 32 v70,2015-02-28 09:37:00,
2015-02-28 04:42:00,56.7,54.4,30.19,NE,45,2.0,11.0,92,0.00,,,0.00,Weather View 32 v70,2015-02-28 09:42:00,
2015-02-28 04:47:00,56.8,54.5,30.19,ENE,60,5.0,11.0,92,0.00,,,0.00,Weather View 32 v70,2015-02-28 09:47:00,
2015-02-28 04:52:00,56.8,54.5,30.19,NE,53,6.0,11.0,92,0.00,,,0.00,Weather View 32 v70,2015-02-28 09:52:00,
2015-02-28 04:57:00,56.9,54.6,30.19,East,86,2.0,11.0,92,0.00,,,0.00,Weather View 32 v70,2015-02-28 09:57:00,
2015-02-28 05:02:00,56.9,54.6,30.19,NE,47,0.0,11.0,92,0.00,,,0.00,Weather View 32 v70,2015-02-28 10:02:00,
2015-02-28 05:07:00,57.0,54.7,30.20,East,95,6.0,11.0,92,0.00,,,0.00,Weather View 32 v70,2015-02-28 10:07:00,
2015-02-28 05:12:00,57.1,54.8,30.20,East,83,2.0,11.0,92,0.00,,,0.00,Weather View 32 v70,2015-02-28 10:12:00,
2015-02-28 05:17:00,57.1,54.8,30.20,ENE,66,5.0,11.0,92,0.00,,,0.00,Weather View 32 v70,2015-02-28 10:17:00,
2015-02-28 05:22:00,57.2,54.9,30.20,East,86,6.0,11.0,92,0.00,,,0.00,Weather View 32 v70,2015-02-28 10:22:00,
2015-02-28 05:27:00,57.2,54.9,30.20,NE,55,0.0,11.0,92,0.00,,,0.00,Weather View 32 v70,2015-02-28 10:27:00,
2015-02-28 05:32:00,57.3,55.0,30.20,ENE,64,1.0,11.0,92,0.00,,,0.00,Weather View 32 v70,2015-02-28 10:32:00,
2015-02-28 05:37:00,57.3,55.0,30.20,NE,38,0.0,11.0,92,0.00,,,0.00,Weather View 32 v70,2015-02-28 10:37:00,
2015-02-28 05:42:00,57.4,55.1,30.21,ENE,57,4.0,11.0,92,0.00,,,0.00,Weather View 32 v70,2015-02-28 10:42:00,
2015-02-28 05:47:00,57.4,55.1,30.21,ENE,57,0.0,11.0,92,0.00,,,0.00,Weather View 32 v70,2015-02-28 10:47:00,
2015-02-28 05:52:00,57.4,55.1,30.21,NE,56,6.0,10.0,92,0.00,,,0.00,Weather View 32 v70,2015-02-28 10:52:00,
2015-02-28 05:57:00,57.5,55.2,30.21,NE,50,0.0,10.0,92,0.00,,,0.00,Weather View 32 v70,2015-02-28 10:57:00,
2015-02-28 06:02:00,57.5,55.2,30.21,NE,53,1.0,10.0,92,0.00,,,0.00,Weather View 32 v70,2015-02-28 11:02:00,
2015-02-28 06:07:00,57.6,55.3,30.21,NE,40,1.0,10.0,92,0.00,,,0.00,Weather View 32 v70,2015-02-28 11:07:00,
2015-02-28 06:12:00,57.6,55.3,30.22,NE,34,0.0,10.0,92,0.00,,,0.00,Weather View 32 v70,2015-02-28 11:12:00,
2015-02-28 06:17:00,57.6,55.3,30.22,NNE,29,0.0,10.0,92,0.00,,,0.00,Weather View 32 v70,2015-02-28 11:17:00,
2015-02-28 06:22:00,57.6,55.3,30.22,NE,50,3.0,10.0,92,0.00,,,0.00,Weather View 32 v70,2015-02-28 11:22:00,
2015-02-28 06:27:00,57.6,55.3,30.22,NNE,31,0.0,10.0,92,0.00,,,0.00,Weather View 32 v70,2015-02-28 11:27:00,
2015-02-28 06:32:00,57.6,55.3,30.22,ENE,68,2.0,10.0,92,0.00,,,0.00,Weather View 32 v70,2015-02-28 11:32:00,
2015-02-28 06:37:00,57.7,55.4,30.22,NE,40,0.0,10.0,92,0.00,,,0.00,Weather View 32 v70,2015-02-28 11:37:00,
2015-02-28 06:42:00,57.7,55.4,30.23,NE,34,1.0,10.0,92,0.00,,,0.00,Weather View 32 v70,2015-02-28 11:42:00,
2015-02-28 06:48:00,57.8,55.5,30.23,NE,35,0.0,11.0,92,0.00,,,0.00,Weather View 32 v70,2015-02-28 11:48:00,
2015-02-28 06:53:00,57.8,55.5,30.23,ENE,65,2.0,11.0,92,0.00,,,0.00,Weather View 32 v70,2015-02-28 11:53:00,
2015-02-28 06:58:00,57.9,55.6,30.23,East,96,1.0,11.0,92,0.00,,,0.00,Weather View 32 v70,2015-02-28 11:58:00,
2015-02-28 07:03:00,58.0,55.7,30.23,East,92,0.0,11.0,92,0.00,,,0.00,Weather View 32 v70,2015-02-28 12:03:00,
2015-02-28 07:08:00,58.0,55.7,30.24,NE,36,0.0,11.0,92,0.00,,,0.00,Weather View 32 v70,2015-02-28 12:08:00,
2015-02-28 07:13:00,58.1,55.8,30.23,NNE,30,0.0,11.0,92,0.00,,,0.00,Weather View 32 v70,2015-02-28 12:13:00,
2015-02-28 07:18:00,58.2,55.9,30.24,NE,44,0.0,11.0,92,0.00,,,0.00,Weather View 32 v70,2015-02-28 12:18:00,
2015-02-28 07:23:00,58.2,55.9,30.24,East,83,5.0,11.0,92,0.00,,,0.00,Weather View 32 v70,2015-02-28 12:23:00,
2015-02-28 07:28:00,58.3,56.0,30.24,NE,43,7.0,11.0,92,0.00,,,0.00,Weather View 32 v70,2015-02-28 12:28:00,
2015-02-28 07:33:00,58.4,56.1,30.24,East,98,8.0,11.0,92,0.00,,,0.00,Weather View 32 v70,2015-02-28 12:33:00,
2015-02-28 07:38:00,58.5,56.2,30.25,NE,53,0.0,11.0,92,0.00,,,0.00,Weather View 32 v70,2015-02-28 12:38:00,
2015-02-28 07:43:00,58.6,56.3,30.25,NE,53,1.0,11.0,92,0.00,,,0.00,Weather View 32 v70,2015-02-28 12:43:00,
2015-02-28 07:48:00,58.8,56.5,30.25,ENE,78,0.0,11.0,92,0.00,,,0.00,Weather View 32 v70,2015-02-28 12:48:00,
2015-02-28 07:53:00,58.9,56.6,30.25,ENE,63,4.0,11.0,92,0.00,,,0.00,Weather View 32 v70,2015-02-28 12:53:00,
2015-02-28 07:58:00,59.1,56.8,30.25,NE,48,0.0,11.0,92,0.00,,,0.00,Weather View 32 v70,2015-02-28 12:58:00,
2015-02-28 08:03:00,59.2,56.9,30.25,NE,53,0.0,11.0,92,0.00,,,0.00,Weather View 32 v70,2015-02-28 13:03:00,
2015-02-28 08:08:00,59.3,57.0,30.25,ENE,59,0.0,11.0,92,0.00,,,0.00,Weather View 32 v70,2015-02-28 13:08:00,
2015-02-28 08:13:00,59.5,57.2,30.25,ENE,57,0.0,11.0,92,0.00,,,0.00,Weather View 32 v70,2015-02-28 13:13:00,
2015-02-28 08:18:00,59.6,57.3,30.25,ESE,103,2.0,11.0,92,0.00,,,0.00,Weather View 32 v70,2015-02-28 13:18:00,
2015-02-28 08:23:00,59.8,57.5,30.26,ENE,57,0.0,11.0,92,0.00,,,0.00,Weather View 32 v70,2015-02-28 13:23:00,
2015-02-28 08:28:00,60.0,57.7,30.26,East,84,0.0,11.0,92,0.00,,,0.00,Weather View 32 v70,2015-02-28 13:28:00,
2015-02-28 08:33:00,60.2,57.9,30.26,ENE,62,2.0,11.0,92,0.00,,,0.00,Weather View 32 v70,2015-02-28 13:33:00,
2015-02-28 08:38:00,60.4,58.1,30.26,ESE,103,2.0,8.0,92,0.00,,,0.00,Weather View 32 v70,2015-02-28 13:38:00,
2015-02-28 08:43:00,60.5,58.2,30.26,ESE,107,0.0,8.0,92,0.00,,,0.00,Weather View 32 v70,2015-02-28 13:43:00,
2015-02-28 08:48:00,60.8,58.5,30.27,East,81,2.0,8.0,92,0.00,,,0.00,Weather View 32 v70,2015-02-28 13:48:00,
2015-02-28 08:53:00,61.0,58.7,30.26,NNE,24,0.0,8.0,92,0.00,,,0.00,Weather View 32 v70,2015-02-28 13:53:00,
2015-02-28 08:58:00,61.2,58.8,30.26,ENE,62,3.0,8.0,92,0.00,,,0.00,Weather View 32 v70,2015-02-28 13:58:00,
2015-02-28 09:03:00,61.4,59.0,30.26,NE,53,2.0,8.0,92,0.00,,,0.00,Weather View 32 v70,2015-02-28 14:03:00,
2015-02-28 09:08:00,61.7,59.3,30.26,NE,56,0.0,9.0,92,0.00,,,0.00,Weather View 32 v70,2015-02-28 14:08:00,
2015-02-28 09:13:00,61.9,59.2,30.27,ESE,107,0.0,9.0,91,0.00,,,0.00,Weather View 32 v70,2015-02-28 14:13:00,
2015-02-28 09:19:00,62.1,59.4,30.27,NE,56,0.0,9.0,91,0.00,,,0.00,Weather View 32 v70,2015-02-28 14:19:00,
2015-02-28 09:24:00,62.3,59.6,30.27,East,92,0.0,9.0,91,0.00,,,0.00,Weather View 32 v70,2015-02-28 14:24:00,
2015-02-28 09:29:00,62.4,59.7,30.27,East,99,2.0,9.0,91,0.00,,,0.00,Weather View 32 v70,2015-02-28 14:29:00,
2015-02-28 09:34:00,62.5,59.8,30.28,NE,49,2.0,9.0,91,0.00,,,0.00,Weather View 32 v70,2015-02-28 14:34:00,
2015-02-28 09:39:00,62.6,59.9,30.28,East,86,3.0,9.0,91,0.00,,,0.00,Weather View 32 v70,2015-02-28 14:39:00,
2015-02-28 09:44:00,62.8,60.1,30.28,East,81,1.0,9.0,91,0.00,,,0.00,Weather View 32 v70,2015-02-28 14:44:00,
2015-02-28 09:49:00,63.0,60.3,30.28,ESE,106,0.0,9.0,91,0.00,,,0.00,Weather View 32 v70,2015-02-28 14:49:00,
2015-02-28 09:54:00,63.2,60.5,30.28,NE,55,5.0,10.0,91,0.00,,,0.00,Weather View 32 v70,2015-02-28 14:54:00,
2015-02-28 09:59:00,63.4,60.7,30.28,ENE,63,0.0,10.0,91,0.00,,,0.00,Weather View 32 v70,2015-02-28 14:59:00,
2015-02-28 10:04:00,63.6,60.9,30.28,ENE,59,4.0,10.0,91,0.00,,,0.00,Weather View 32 v70,2015-02-28 15:04:00,
2015-02-28 10:09:00,63.7,61.0,30.28,NE,48,3.0,10.0,91,0.00,,,0.00,Weather View 32 v70,2015-02-28 15:09:00,
2015-02-28 10:14:00,63.9,61.2,30.28,NE,44,0.0,10.0,91,0.00,,,0.00,Weather View 32 v70,2015-02-28 15:14:00,
2015-02-28 10:19:00,64.0,61.3,30.28,ENE,78,3.0,10.0,91,0.00,,,0.00,Weather View 32 v70,2015-02-28 15:19:00,
2015-02-28 10:24:00,64.1,61.7,30.28,East,86,0.0,10.0,92,0.00,,,0.00,Weather View 32 v70,2015-02-28 15:24:00,
2015-02-28 10:29:00,64.2,61.8,30.29,ENE,74,0.0,10.0,92,0.00,,,0.00,Weather View 32 v70,2015-02-28 15:29:00,
2015-02-28 10:34:00,64.3,61.9,30.29,NE,55,0.0,10.0,92,0.00,,,0.00,Weather View 32 v70,2015-02-28 15:34:00,
2015-02-28 10:39:00,64.3,61.9,30.29,ESE,117,0.0,10.0,92,0.00,,,0.00,Weather View 32 v70,2015-02-28 15:39:00,
2015-02-28 10:44:00,64.4,62.0,30.29,ENE,71,3.0,10.0,92,0.00,,,0.00,Weather View 32 v70,2015-02-28 15:44:00,
2015-02-28 10:49:00,64.6,62.2,30.29,ESE,112,3.0,10.0,92,0.00,,,0.00,Weather View 32 v70,2015-02-28 15:49:00,
2015-02-28 10:54:00,64.8,62.4,30.29,ENE,75,2.0,10.0,92,0.00,,,0.00,Weather View 32 v70,2015-02-28 15:54:00,
2015-02-28 10:59:00,65.0,62.6,30.29,East,84,0.0,8.0,92,0.00,,,0.00,Weather View 32 v70,2015-02-28 15:59:00,
2015-02-28 11:04:00,65.2,62.5,30.29,NE,38,4.0,8.0,91,0.00,,,0.00,Weather View 32 v70,2015-02-28 16:04:00,
2015-02-28 11:09:00,65.3,62.9,30.29,ENE,57,2.0,8.0,92,0.00,,,0.00,Weather View 32 v70,2015-02-28 16:09:00,
2015-02-28 11:14:00,65.3,62.6,30.29,ENE,78,0.0,8.0,91,0.00,,,0.00,Weather View 32 v70,2015-02-28 16:14:00,
2015-02-28 11:19:00,65.3,62.9,30.29,ESE,105,0.0,8.0,92,0.00,,,0.00,Weather View 32 v70,2015-02-28 16:19:00,
2015-02-28 11:24:00,65.3,62.9,30.29,East,97,2.0,8.0,92,0.00,,,0.00,Weather View 32 v70,2015-02-28 16:24:00,
2015-02-28 11:29:00,65.5,63.1,30.29,NE,46,5.0,8.0,92,0.00,,,0.00,Weather View 32 v70,2015-02-28 16:29:00,
2015-02-28 11:34:00,65.8,63.7,30.28,NE,54,0.0,8.0,93,0.00,,,0.00,Weather View 32 v70,2015-02-28 16:34:00,
2015-02-28 11:39:00,65.9,63.5,30.29,East,91,5.0,9.0,92,0.00,,,0.00,Weather View 32 v70,2015-02-28 16:39:00,
2015-02-28 11:44:00,65.9,63.5,30.29,ENE,66,2.0,9.0,92,0.00,,,0.00,Weather View 32 v70,2015-02-28 16:44:00,
2015-02-28 11:49:00,65.8,63.4,30.28,NE,44,2.0,10.0,92,0.00,,,0.00,Weather View 32 v70,2015-02-28 16:49:00,
2015-02-28 11:54:00,65.8,63.4,30.28,ENE,61,4.0,10.0,92,0.00,,,0.00,Weather View 32 v70,2015-02-28 16:54:00,
2015-02-28 11:59:00,65.9,63.5,30.28,East,98,2.0,10.0,92,0.00,,,0.00,Weather View 32 v70,2015-02-28 16:59:00,
2015-02-28 12:04:00,66.0,63.6,30.28,NE,45,0.0,10.0,92,0.00,,,0.00,Weather View 32 v70,2015-02-28 17:04:00,
2015-02-28 12:09:00,66.1,63.7,30.28,ENE,58,0.0,10.0,92,0.00,,,0.00,Weather View 32 v70,2015-02-28 17:09:00,
2015-02-28 12:14:00,66.3,63.9,30.28,NE,55,2.0,10.0,92,0.00,,,0.00,Weather View 32 v70,2015-02-28 17:14:00,
2015-02-28 12:20:00,66.6,64.2,30.28,NE,36,0.0,10.0,92,0.00,,,0.00,Weather View 32 v70,2015-02-28 17:20:00,
2015-02-28 12:25:00,66.8,64.4,30.28,ENE,57,0.0,10.0,92,0.00,,,0.00,Weather View 32 v70,2015-02-28 17:25:00,
2015-02-28 12:30:00,67.1,64.7,30.28,ESE,111,3.0,10.0,92,0.00,,,0.00,Weather View 32 v70,2015-02-28 17:30:00,
2015-02-28 12:35:00,67.5,64.8,30.28,East,92,5.0,10.0,91,0.00,,,0.00,Weather View 32 v70,2015-02-28 17:35:00,
2015-02-28 12:40:00,67.7,65.0,30.28,ESE,105,7.0,10.0,91,0.00,,,0.00,Weather View 32 v70,2015-02-28 17:40:00,
2015-02-28 12:45:00,67.8,65.1,30.27,SE,132,2.0,10.0,91,0.00,,,0.00,Weather View 32 v70,2015-02-28 17:45:00,
2015-02-28 12:50:00,68.0,64.9,30.27,East,85,2.0,10.0,90,0.00,,,0.00,Weather View 32 v70,2015-02-28 17:50:00,
2015-02-28 12:55:00,68.2,65.1,30.27,ENE,71,0.0,10.0,90,0.00,,,0.00,Weather View 32 v70,2015-02-28 17:55:00,
2015-02-28 13:00:00,68.4,65.3,30.27,NNE,27,0.0,10.0,90,0.00,,,0.00,Weather View 32 v70,2015-02-28 18:00:00,
2015-02-28 13:05:00,68.4,65.3,30.26,North,360,0.0,10.0,90,0.00,,,0.00,Weather View 32 v70,2015-02-28 18:05:00,
2015-02-28 13:10:00,68.2,65.1,30.26,NE,40,0.0,10.0,90,0.00,,,0.00,Weather View 32 v70,2015-02-28 18:10:00,
2015-02-28 13:15:00,68.1,65.0,30.26,NE,44,1.0,10.0,90,0.00,,,0.00,Weather View 32 v70,2015-02-28 18:15:00,
2015-02-28 13:20:00,68.1,65.0,30.25,NE,38,0.0,10.0,90,0.00,,,0.00,Weather View 32 v70,2015-02-28 18:20:00,
2015-02-28 13:25:00,68.1,65.0,30.26,NE,55,0.0,10.0,90,0.00,,,0.00,Weather View 32 v70,2015-02-28 18:25:00,
2015-02-28 13:30:00,68.1,65.0,30.25,ESE,103,0.0,10.0,90,0.00,,,0.00,Weather View 32 v70,2015-02-28 18:30:00,
2015-02-28 13:35:00,68.0,64.9,30.25,NE,46,4.0,10.0,90,0.00,,,0.00,Weather View 32 v70,2015-02-28 18:35:00,
2015-02-28 13:40:00,67.9,64.8,30.25,NNE,28,4.0,10.0,90,0.00,,,0.00,Weather View 32 v70,2015-02-28 18:40:00,
2015-02-28 13:45:00,68.0,65.3,30.25,NE,45,5.0,10.0,91,0.00,,,0.00,Weather View 32 v70,2015-02-28 18:45:00,
2015-02-28 13:50:00,67.9,64.8,30.24,NE,49,0.0,9.0,90,0.00,,,0.00,Weather View 32 v70,2015-02-28 18:50:00,
2015-02-28 13:55:00,67.6,64.6,30.24,NE,46,0.0,9.0,90,0.00,,,0.00,Weather View 32 v70,2015-02-28 18:55:00,
2015-02-28 14:00:00,67.7,65.0,30.24,NE,51,0.0,9.0,91,0.00,,,0.00,Weather View 32 v70,2015-02-28 19:00:00,
2015-02-28 14:05:00,68.1,65.0,30.24,NE,53,3.0,9.0,90,0.00,,,0.00,Weather View 32 v70,2015-02-28 19:05:00,
2015-02-28 14:10:00,68.4,65.3,30.23,NNE,20,3.0,9.0,90,0.00,,,0.00,Weather View 32 v70,2015-02-28 19:10:00,
2015-02-28 14:15:00,68.7,65.3,30.23,NE,51,2.0,10.0,89,0.00,,,0.00,Weather View 32 v70,2015-02-28 19:15:00,
2015-02-28 14:20:00,69.0,65.6,30.23,NNE,14,2.0,10.0,89,0.00,,,0.00,Weather View 32 v70,2015-02-28 19:20:00,
2015-02-28 14:25:00,68.8,65.1,30.23,NE,51,0.0,11.0,88,0.00,,,0.00,Weather View 32 v70,2015-02-28 19:25:00,
2015-02-28 14:30:00,68.8,65.1,30.23,NE,50,2.0,11.0,88,0.00,,,0.00,Weather View 32 v70,2015-02-28 19:30:00,
2015-02-28 14:35:00,68.9,65.5,30.23,NE,34,3.0,11.0,89,0.00,,,0.00,Weather View 32 v70,2015-02-28 19:35:00,
2015-02-28 14:40:00,68.8,65.1,30.23,ENE,76,7.0,11.0,88,0.00,,,0.00,Weather View 32 v70,2015-02-28 19:40:00,
2015-02-28 14:45:00,68.7,65.3,30.23,NE,48,0.0,11.0,89,0.00,,,0.00,Weather View 32 v70,2015-02-28 19:45:00,
2015-02-28 14:51:00,68.7,65.3,30.23,ENE,74,5.0,11.0,89,0.00,,,0.00,Weather View 32 v70,2015-02-28 19:51:00,
2015-02-28 14:56:00,68.7,65.3,30.23,NE,44,5.0,11.0,89,0.00,,,0.00,Weather View 32 v70,2015-02-28 19:56:00,
2015-02-28 15:01:00,68.5,65.1,30.23,NE,44,3.0,11.0,89,0.00,,,0.00,Weather View 32 v70,2015-02-28 20:01:00,
2015-02-28 15:06:00,68.4,65.0,30.23,NE,49,0.0,11.0,89,0.00,,,0.00,Weather View 32 v70,2015-02-28 20:06:00,
2015-02-28 15:11:00,68.3,64.9,30.23,NE,40,4.0,11.0,89,0.00,,,0.00,Weather View 32 v70,2015-02-28 20:11:00,
2015-02-28 15:16:00,68.3,65.2,30.23,NE,42,1.0,11.0,90,0.00,,,0.00,Weather View 32 v70,2015-02-28 20:16:00,
2015-02-28 15:21:00,68.4,65.3,30.23,NE,34,0.0,12.0,90,0.00,,,0.00,Weather View 32 v70,2015-02-28 20:21:00,
2015-02-28 15:26:00,68.6,65.5,30.24,NNE,28,0.0,12.0,90,0.00,,,0.00,Weather View 32 v70,2015-02-28 20:26:00,
2015-02-28 15:31:00,68.7,65.3,30.24,NE,35,0.0,12.0,89,0.00,,,0.00,Weather View 32 v70,2015-02-28 20:31:00,
2015-02-28 15:36:00,68.3,64.6,30.23,NE,36,2.0,14.0,88,0.00,,,0.00,Weather View 32 v70,2015-02-28 20:36:00,
2015-02-28 15:41:00,68.0,64.0,30.24,NNW,333,1.0,14.0,87,0.00,,,0.00,Weather View 32 v70,2015-02-28 20:41:00,
2015-02-28 15:46:00,67.6,63.2,30.24,NE,48,0.0,14.0,86,0.00,,,0.00,Weather View 32 v70,2015-02-28 20:46:00,
2015-02-28 15:51:00,67.3,63.0,30.24,NE,55,1.0,14.0,86,0.00,,,0.00,Weather View 32 v70,2015-02-28 20:51:00,
2015-02-28 15:56:00,67.0,62.7,30.24,NE,41,2.0,14.0,86,0.00,,,0.00,Weather View 32 v70,2015-02-28 20:56:00,
2015-02-28 16:01:00,66.8,62.5,30.23,NE,42,0.0,14.0,86,0.00,,,0.00,Weather View 32 v70,2015-02-28 21:01:00,
2015-02-28 16:06:00,66.7,62.4,30.23,NE,38,0.0,14.0,86,0.00,,,0.00,Weather View 32 v70,2015-02-28 21:06:00,
2015-02-28 16:11:00,66.7,62.4,30.23,NE,48,2.0,14.0,86,0.00,,,0.00,Weather View 32 v70,2015-02-28 21:11:00,
2015-02-28 16:16:00,66.6,62.3,30.23,NE,53,1.0,14.0,86,0.00,,,0.00,Weather View 32 v70,2015-02-28 21:16:00,
2015-02-28 16:21:00,66.7,62.4,30.22,ENE,74,5.0,14.0,86,0.00,,,0.00,Weather View 32 v70,2015-02-28 21:21:00,
2015-02-28 16:26:00,66.9,62.6,30.22,NE,36,3.0,14.0,86,0.00,,,0.00,Weather View 32 v70,2015-02-28 21:26:00,
2015-02-28 16:31:00,67.1,62.8,30.23,East,84,1.0,14.0,86,0.00,,,0.00,Weather View 32 v70,2015-02-28 21:31:00,
2015-02-28 16:36:00,67.4,62.7,30.23,NNE,32,10.0,13.0,85,0.00,,,0.00,Weather View 32 v70,2015-02-28 21:36:00,
2015-02-28 16:41:00,67.6,62.9,30.22,NNE,24,4.0,13.0,85,0.00,,,0.00,Weather View 32 v70,2015-02-28 21:41:00,
2015-02-28 16:46:00,67.9,63.2,30.22,ESE,115,5.0,12.0,85,0.00,,,0.00,Weather View 32 v70,2015-02-28 21:46:00,
2015-02-28 16:51:00,68.0,63.3,30.22,NNE,27,1.0,12.0,85,0.00,,,0.00,Weather View 32 v70,2015-02-28 21:51:00,
2015-02-28 16:56:00,68.1,63.1,30.23,NE,40,2.0,12.0,84,0.00,,,0.00,Weather View 32 v70,2015-02-28 21:56:00,
2015-02-28 17:01:00,68.0,63.3,30.23,ENE,59,3.0,12.0,85,0.00,,,0.00,Weather View 32 v70,2015-02-28 22:01:00,
2015-02-28 17:06:00,68.0,63.6,30.23,ENE,74,0.0,12.0,86,0.00,,,0.00,Weather View 32 v70,2015-02-28 22:06:00,
2015-02-28 17:11:00,68.1,63.7,30.23,NE,54,6.0,12.0,86,0.00,,,0.00,Weather View 32 v70,2015-02-28 22:11:00,
2015-02-28 17:16:00,68.1,63.7,30.23,ENE,57,0.0,12.0,86,0.00,,,0.00,Weather View 32 v70,2015-02-28 22:16:00,
2015-02-28 17:21:00,68.0,63.6,30.23,North,5,2.0,12.0,86,0.00,,,0.00,Weather View 32 v70,2015-02-28 22:21:00,
2015-02-28 17:27:00,67.9,63.5,30.23,East,100,0.0,12.0,86,0.00,,,0.00,Weather View 32 v70,2015-02-28 22:27:00,
2015-02-28 17:32:00,67.9,63.5,30.24,NE,44,0.0,12.0,86,0.00,,,0.00,Weather View 32 v70,2015-02-28 22:32:00,
2015-02-28 17:37:00,67.9,63.5,30.24,NE,50,0.0,12.0,86,0.00,,,0.00,Weather View 32 v70,2015-02-28 22:37:00,
2015-02-28 17:42:00,67.9,63.5,30.24,NE,38,1.0,12.0,86,0.00,,,0.00,Weather View 32 v70,2015-02-28 22:42:00,
2015-02-28 17:47:00,67.9,63.5,30.24,East,92,0.0,12.0,86,0.00,,,0.00,Weather View 32 v70,2015-02-28 22:47:00,
2015-02-28 17:52:00,67.9,63.5,30.25,NE,48,0.0,12.0,86,0.00,,,0.00,Weather View 32 v70,2015-02-28 22:52:00,
2015-02-28 17:57:00,67.8,63.4,30.25,SE,132,6.0,12.0,86,0.00,,,0.00,Weather View 32 v70,2015-02-28 22:57:00,
2015-02-28 18:00:00,67.8,63.4,30.25,ENE,65,4.0,12.0,86,0.00,,,0.00,Weather View 32 v70,2015-02-28 23:00:00,
2015-02-28 18:02:00,67.8,63.4,30.25,ENE,57,0.0,12.0,86,0.00,,,0.00,Weather View 32 v70,2015-02-28 23:02:00,
2015-02-28 18:07:00,67.8,63.4,30.25,ENE,75,4.0,12.0,86,0.00,,,0.00,Weather View 32 v70,2015-02-28 23:07:00,
2015-02-28 18:12:00,67.7,63.3,30.24,ESE,120,3.0,12.0,86,0.00,,,0.00,Weather View 32 v70,2015-02-28 23:12:00,
2015-02-28 18:17:00,67.7,63.7,30.25,ESE,117,0.0,12.0,87,0.00,,,0.00,Weather View 32 v70,2015-02-28 23:17:00,
2015-02-28 18:22:00,67.6,63.6,30.25,ENE,65,7.0,12.0,87,0.00,,,0.00,Weather View 32 v70,2015-02-28 23:22:00,
2015-02-28 18:27:00,67.6,63.6,30.25,East,99,3.0,12.0,87,0.00,,,0.00,Weather View 32 v70,2015-02-28 23:27:00,
2015-02-28 18:32:00,67.6,63.6,30.26,ESE,105,3.0,12.0,87,0.00,,,0.00,Weather View 32 v70,2015-02-28 23:32:00,
2015-02-28 18:37:00,67.6,63.6,30.25,NE,34,3.0,12.0,87,0.00,,,0.00,Weather View 32 v70,2015-02-28 23:37:00,
2015-02-28 18:42:00,67.5,63.5,30.26,ENE,58,3.0,14.0,87,0.00,,,0.00,Weather View 32 v70,2015-02-28 23:42:00,
2015-02-28 18:47:00,67.5,63.5,30.26,ENE,65,4.0,14.0,87,0.00,,,0.00,Weather View 32 v70,2015-02-28 23:47:00,
2015-02-28 18:52:00,67.5,63.5,30.26,ENE,65,0.0,14.0,87,0.00,,,0.00,Weather View 32 v70,2015-02-28 23:52:00,
2015-02-28 18:57:00,67.5,63.5,30.26,ESE,113,5.0,14.0,87,0.00,,,0.00,Weather View 32 v70,2015-02-28 23:57:00,
2015-02-28 19:00:00,67.5,63.5,30.26,SE,128,5.0,14.0,87,0.00,,,0.00,Weather View 32 v70,2015-03-01 00:00:00,
2015-02-28 19:02:00,67.5,63.5,30.26,ESE,105,0.0,14.0,87,0.00,,,0.00,Weather View 32 v70,2015-03-01 00:02:00,
2015-02-28 19:07:00,67.5,63.5,30.26,East,96,2.0,14.0,87,0.00,,,0.00,Weather View 32 v70,2015-03-01 00:07:00,
2015-02-28 19:12:00,67.5,63.1,30.26,East,101,0.0,14.0,86,0.00,,,0.00,Weather View 32 v70,2015-03-01 00:12:00,
2015-02-28 19:17:00,67.5,63.1,30.27,NE,46,0.0,14.0,86,0.00,,,0.00,Weather View 32 v70,2015-03-01 00:17:00,
2015-02-28 19:22:00,67.5,63.1,30.27,East,92,1.0,14.0,86,0.00,,,0.00,Weather View 32 v70,2015-03-01 00:22:00,
2015-02-28 19:27:00,67.6,62.9,30.27,East,80,2.0,14.0,85,0.00,,,0.00,Weather View 32 v70,2015-03-01 00:27:00,
2015-02-28 19:32:00,67.7,62.7,30.27,ENE,62,4.0,14.0,84,0.00,,,0.00,Weather View 32 v70,2015-03-01 00:32:00,
2015-02-28 19:37:00,67.7,62.7,30.27,ESE,115,5.0,14.0,84,0.00,,,0.00,Weather View 32 v70,2015-03-01 00:37:00,
2015-02-28 19:42:00,67.8,62.4,30.27,NE,46,3.0,14.0,83,0.00,,,0.00,Weather View 32 v70,2015-03-01 00:42:00,
2015-02-28 19:47:00,67.8,62.4,30.27,NE,56,4.0,14.0,83,0.00,,,0.00,Weather View 32 v70,2015-03-01 00:47:00,
2015-02-28 19:52:00,67.9,62.5,30.27,NE,46,4.0,14.0,83,0.00,,,0.00,Weather View 32 v70,2015-03-01 00:52:00,
2015-02-28 19:57:00,67.9,62.5,30.28,ESE,102,1.0,14.0,83,0.00,,,0.00,Weather View 32 v70,2015-03-01 00:57:00,
2015-02-28 20:00:00,67.9,62.5,30.28,East,84,0.0,14.0,83,0.00,,,0.00,Weather View 32 v70,2015-03-01 01:00:00,
2015-02-28 20:02:00,67.8,62.4,30.28,NE,38,6.0,14.0,83,0.00,,,0.00,Weather View 32 v70,2015-03-01 01:02:00,
2015-02-28 20:07:00,67.8,62.8,30.28,NE,55,3.0,14.0,84,0.00,,,0.00,Weather View 32 v70,2015-03-01 01:07:00,
2015-02-28 20:12:00,67.7,62.7,30.28,ENE,58,0.0,14.0,84,0.00,,,0.00,Weather View 32 v70,2015-03-01 01:12:00,
2015-02-28 20:17:00,67.7,62.7,30.28,NE,54,3.0,14.0,84,0.00,,,0.00,Weather View 32 v70,2015-03-01 01:17:00,
2015-02-28 20:23:00,67.7,63.0,30.28,East,95,0.0,14.0,85,0.00,,,0.00,Weather View 32 v70,2015-03-01 01:23:00,
2015-02-28 20:28:00,67.7,63.0,30.29,ENE,67,0.0,14.0,85,0.00,,,0.00,Weather View 32 v70,2015-03-01 01:28:00,
2015-02-28 20:33:00,67.7,63.0,30.29,ENE,75,0.0,14.0,85,0.00,,,0.00,Weather View 32 v70,2015-03-01 01:33:00,
2015-02-28 20:38:00,67.6,63.2,30.29,ENE,74,0.0,14.0,86,0.00,,,0.00,Weather View 32 v70,2015-03-01 01:38:00,
2015-02-28 20:43:00,67.7,63.3,30.29,NE,37,2.0,14.0,86,0.00,,,0.00,Weather View 32 v70,2015-03-01 01:43:00,
2015-02-28 20:48:00,67.7,63.3,30.30,ENE,59,0.0,14.0,86,0.00,,,0.00,Weather View 32 v70,2015-03-01 01:48:00,
2015-02-28 20:53:00,67.6,63.6,30.29,NE,42,0.0,8.0,87,0.00,,,0.00,Weather View 32 v70,2015-03-01 01:53:00,
2015-02-28 20:58:00,67.6,63.6,30.29,SE,124,7.0,9.0,87,0.00,,,0.00,Weather View 32 v70,2015-03-01 01:58:00,
2015-02-28 21:00:00,67.7,64.0,30.29,ESE,115,3.0,9.0,88,0.00,,,0.00,Weather View 32 v70,2015-03-01 02:00:00,
2015-02-28 21:03:00,67.7,64.0,30.30,ENE,73,1.0,9.0,88,0.00,,,0.00,Weather View 32 v70,2015-03-01 02:03:00,
2015-02-28 21:08:00,67.7,64.0,30.30,ESE,117,1.0,11.0,88,0.00,,,0.00,Weather View 32 v70,2015-03-01 02:08:00,
2015-02-28 21:13:00,67.7,64.3,30.30,East,90,2.0,11.0,89,0.00,,,0.00,Weather View 32 v70,2015-03-01 02:13:00,
2015-02-28 21:18:00,67.8,64.4,30.30,East,82,3.0,11.0,89,0.00,,,0.00,Weather View 32 v70,2015-03-01 02:18:00,
2015-02-28 21:23:00,67.9,64.5,30.30,ESE,120,4.0,11.0,89,0.00,,,0.00,Weather View 32 v70,2015-03-01 02:23:00,
2015-02-28 21:28:00,67.9,64.5,30.30,ENE,78,0.0,11.0,89,0.00,,,0.00,Weather View 32 v70,2015-03-01 02:28:00,
2015-02-28 21:33:00,68.0,64.6,30.31,ESE,107,2.0,11.0,89,0.00,,,0.00,Weather View 32 v70,2015-03-01 02:33:00,
2015-02-28 21:38:00,68.0,64.6,30.30,East,94,2.0,11.0,89,0.00,,,0.00,Weather View 32 v70,2015-03-01 02:38:00,
2015-02-28 21:43:00,68.0,64.6,30.31,ESE,113,4.0,11.0,89,0.00,,,0.00,Weather View 32 v70,2015-03-01 02:43:00,
2015-02-28 21:48:00,68.0,64.9,30.31,East,94,0.0,11.0,90,0.00,,,0.00,Weather View 32 v70,2015-03-01 02:48:00,
2015-02-28 21:53:00,68.0,64.9,30.31,SSE,155,4.0,11.0,90,0.00,,,0.00,Weather View 32 v70,2015-03-01 02:53:00,
2015-02-28 21:58:00,68.0,64.9,30.31,East,100,2.0,11.0,90,0.00,,,0.00,Weather View 32 v70,2015-03-01 02:58:00,
2015-02-28 22:00:00,68.0,64.9,30.31,East,99,3.0,11.0,90,0.00,,,0.00,Weather View 32 v70,2015-03-01 03:00:00,
2015-02-28 22:03:00,68.0,64.9,30.31,East,84,6.0,11.0,90,0.00,,,0.00,Weather View 32 v70,2015-03-01 03:03:00,
2015-02-28 22:08:00,68.0,64.9,30.31,East,88,3.0,11.0,90,0.00,,,0.00,Weather View 32 v70,2015-03-01 03:08:00,
2015-02-28 22:13:00,67.9,64.8,30.31,ESE,109,2.0,11.0,90,0.00,,,0.00,Weather View 32 v70,2015-03-01 03:13:00,
2015-02-28 22:18:00,67.9,64.8,30.31,East,95,6.0,11.0,90,0.00,,,0.00,Weather View 32 v70,2015-03-01 03:18:00,
2015-02-28 22:23:00,67.9,64.8,30.31,ESE,104,0.0,11.0,90,0.00,,,0.00,Weather View 32 v70,2015-03-01 03:23:00,
2015-02-28 22:28:00,67.9,64.8,30.31,East,94,0.0,11.0,90,0.00,,,0.00,Weather View 32 v70,2015-03-01 03:28:00,
2015-02-28 22:33:00,67.9,64.8,30.31,East,87,3.0,10.0,90,0.00,,,0.00,Weather View 32 v70,2015-03-01 03:33:00,
2015-02-28 22:38:00,67.9,64.8,30.31,SE,125,6.0,10.0,90,0.00,,,0.00,Weather View 32 v70,2015-03-01 03:38:00,
2015-02-28 22:43:00,67.9,64.8,30.31,East,90,0.0,10.0,90,0.00,,,0.00,Weather View 32 v70,2015-03-01 03:43:00,
2015-02-28 22:48:00,67.9,64.8,30.31,East,94,0.0,9.0,90,0.00,,,0.00,Weather View 32 v70,2015-03-01 03:48:00,
2015-02-28 22:54:00,67.8,65.1,30.31,ESE,107,2.0,10.0,91,0.00,,,0.00,Weather View 32 v70,2015-03-01 03:54:00,
2015-02-28 22:59:00,67.8,65.1,30.31,East,79,0.0,10.0,91,0.00,,,0.00,Weather View 32 v70,2015-03-01 03:59:00,
2015-02-28 23:00:00,67.8,65.1,30.31,East,79,0.0,10.0,91,0.00,,,0.00,Weather View 32 v70,2015-03-01 04:00:00,
2015-02-28 23:04:00,67.8,65.1,30.30,East,86,7.0,10.0,91,0.00,,,0.00,Weather View 32 v70,2015-03-01 04:04:00,
2015-02-28 23:09:00,67.8,65.1,30.30,East,82,0.0,10.0,91,0.00,,,0.00,Weather View 32 v70,2015-03-01 04:09:00,
2015-02-28 23:14:00,67.8,65.1,30.30,East,98,0.0,10.0,91,0.00,,,0.00,Weather View 32 v70,2015-03-01 04:14:00,
2015-02-28 23:19:00,67.8,65.1,30.30,ESE,106,4.0,10.0,91,0.00,,,0.00,Weather View 32 v70,2015-03-01 04:19:00,
2015-02-28 23:24:00,67.8,65.1,30.30,East,92,3.0,10.0,91,0.00,,,0.00,Weather View 32 v70,2015-03-01 04:24:00,
2015-02-28 23:29:00,67.8,65.1,30.30,ESE,105,0.0,11.0,91,0.00,,,0.00,Weather View 32 v70,2015-03-01 04:29:00,